Theta_e
339 340 346 351 352 343 340 337 332 333 337 338 339 339 339 338 343 355 347 344 340 335 348 352 349 351 351 351 349 347 349 348 348 346 344 342 346 343 342 344 345 344 341 339 339 339 339 339 340
340 339 346 348 348 341 340 335 334 331 335 337 338 340 341 340 345 349 346 345 337 341 348 351 349 349 350 350 350 349 348 348 347 345 343 340 344 344 342 344 345 343 341 339 338 338 338 339 340
337 339 346 346 345 342 337 335 336 334 334 336 340 340 343 349 348 348 347 344 335 345 348 351 349 348 349 350 349 348 348 348 346 344 342 340 339 346 344 343 344 342 340 339 337 336 336 338 339
332 337 341 344 343 339 338 336 334 336 335 336 338 340 344 345 347 348 347 344 336 345 346 350 347 347 348 350 349 348 347 347 344 342 340 339 338 345 343 343 343 342 339 337 336 334 334 334 336
331 333 335 334 337 335 334 336 337 338 336 336 337 340 344 347 348 348 345 339 341 347 347 350 346 349 349 348 348 348 347 345 343 341 339 338 339 345 342 341 342 341 339 337 335 333 332 331 332
331 328 331 329 328 330 331 335 335 337 337 337 339 340 346 347 348 347 342 340 346 346 348 349 347 347 346 348 348 347 346 344 341 339 338 339 345 342 342 341 341 340 338 335 333 332 330 330 331
330 330 328 326 325 324 326 332 333 335 335 338 341 342 347 347 347 346 341 341 343 342 342 345 347 346 346 347 346 346 344 341 340 338 339 343 343 340 342 341 340 340 335 332 331 330 329 329 329
331 328 329 328 325 326 327 328 333 336 336 336 339 340 343 349 346 345 343 341 341 341 341 345 347 346 346 346 344 343 340 340 339 338 339 342 340 340 340 337 339 338 334 330 328 328 328 328 326
326 329 325 324 324 326 326 329 329 331 333 333 333 338 339 346 346 345 343 341 339 340 343 345 346 345 344 343 344 341 339 337 336 339 340 338 339 338 338 336 337 334 331 328 327 327 326 324 318
325 326 325 323 324 323 323 325 327 329 329 329 330 332 337 345 347 345 343 341 338 340 341 344 346 344 342 342 343 339 337 334 339 340 339 340 337 336 336 334 335 332 328 327 327 319 320 321 323
320 323 320 318 319 319 321 322 322 322 323 324 328 330 336 339 344 345 344 343 340 343 343 345 346 345 341 338 338 332 331 334 340 340 337 334 335 332 331 330 332 329 326 322 319 322 323 322 323
319 319 319 320 320 319 318 318 318 317 318 318 320 323 327 331 340 343 344 343 341 340 340 344 343 343 337 336 332 330 331 340 340 339 336 334 332 328 328 327 329 327 319 315 315 319 322 322 322
321 321 321 321 321 321 321 321 321 320 319 318 317 317 318 321 335 338 342 344 342 342 343 343 342 339 336 333 330 331 340 341 339 339 335 333 329 326 325 324 325 323 314 312 314 317 319 320 321
322 321 322 321 321 321 322 322 321 320 319 318 317 317 317 321 326 331 338 343 342 341 342 341 340 340 335 331 330 337 342 339 338 337 335 330 327 325 324 323 319 317 312 312 313 313 314 315 316
321 323 323 322 322 321 320 321 321 321 319 319 319 317 318 318 319 322 331 339 342 342 340 341 340 337 335 330 332 339 341 340 339 337 333 327 325 323 322 320 315 312 312 312 312 313 313 313 313
324 324 325 324 322 322 321 325 322 321 321 321 321 321 320 319 318 322 324 332 338 341 341 340 341 336 335 331 338 339 341 339 338 336 329 324 322 321 319 316 312 312 311 312 312 312 313 313 313
325 324 325 324 323 322 323 325 323 323 323 323 323 322 321 320 319 318 327 330 336 341 341 340 340 337 336 332 338 338 339 338 337 333 325 323 320 318 315 313 312 311 311 312 312 312 312 313 312
322 324 324 324 322 322 323 324 323 322 321 321 321 322 322 321 319 318 325 333 336 342 340 340 339 337 336 333 338 337 338 337 336 329 324 321 318 314 312 312 312 311 312 312 312 313 312 312 312
320 321 323 323 322 324 323 323 321 322 321 322 322 323 322 321 320 318 317 332 339 339 338 329 339 338 336 336 338 338 338 336 334 328 325 319 315 313 312 312 311 312 312 312 312 313 313 313 312
319 321 323 323 322 323 322 323 321 321 322 322 321 321 323 323 322 321 318 322 333 340 339 338 339 338 337 338 337 337 336 336 332 328 325 317 314 312 312 311 311 312 312 313 313 313 313 313 313
320 321 321 324 323 323 322 324 321 321 321 321 321 322 322 324 323 323 322 322 329 338 340 339 339 339 337 338 336 334 335 333 329 329 326 317 312 310 310 311 311 311 313 313 313 314 314 314 313
321 320 325 326 324 324 322 326 324 322 323 321 321 322 324 324 325 324 323 323 326 333 339 339 338 339 338 337 332 333 329 327 326 324 322 317 311 309 309 309 310 311 312 313 313 313 314 314 313
320 321 325 325 325 325 323 324 323 322 323 322 321 322 321 321 326 328 324 323 323 330 335 339 336 337 337 335 332 333 331 329 327 323 321 318 311 308 308 308 308 308 308 309 309 310 310 311 312
319 322 326 325 326 327 322 325 323 323 322 321 324 322 320 321 323 329 327 325 325 331 336 337 330 328 334 332 331 331 330 329 324 319 317 316 312 308 308 309 309 308 308 308 308 309 309 309 311
320 325 336 331 330 326 323 325 326 323 321 325 324 320 319 319 322 327 330 328 328 336 337 335 334 334 332 331 327 326 328 327 324 321 316 314 314 313 312 310 310 309 309 309 309 309 309 309 311
322 324 330 335 327 329 324 327 326 322 322 323 322 318 317 319 319 323 334 335 333 335 332 330 330 328 330 329 324 324 323 322 318 315 314 314 314 315 315 314 311 310 310 310 310 309 308 309 311
319 320 322 329 328 332 325 320 324 323 322 321 322 318 317 317 318 320 321 329 330 329 328 327 327 325 325 324 323 321 321 320 319 317 315 315 315 315 314 312 311 310 311 309 308 308 309 309 309
317 318 325 327 336 328 320 317 318 321 322 321 322 318 316 317 317 317 317 317 319 324 327 326 325 323 322 323 323 322 322 323 320 318 317 316 316 315 314 312 311 311 308 306 306 307 308 308 308
318 318 318 323 323 327 323 321 317 318 320 320 321 315 314 316 315 313 314 313 314 318 322 321 319 320 321 322 321 321 320 319 318 317 315 315 314 313 313 312 311 308 308 309 310 308 307 305 304
315 315 315 318 319 322 324 322 317 318 319 319 318 316 314 314 316 314 312 312 311 310 310 314 312 311 312 313 315 311 313 314 312 309 310 312 313 312 311 311 311 311 310 307 305 304 303 304 303
Wind_Speed
4 5 6 5 6 7 13 11 8 4 9 6 5 8 6 11 8 3 6 6 19 24 25 24 25 23 22 20 21 20 17 16 16 14 14 13 13 13 12 12 14 17 17 17 17 17 17 17 17
5 5 7 6 8 12 11 13 8 8 3 5 2 6 9 6 7 6 11 9 18 23 22 23 25 24 22 21 19 19 17 16 16 13 12 12 13 13 13 13 14 17 17 17 17 17 17 17 17
5 9 8 5 14 15 14 3 5 1 5 6 4 2 7 5 7 7 7 17 21 21 21 22 25 24 22 21 19 18 17 17 15 13 11 11 12 12 13 14 14 16 16 16 17 17 17 16 16
6 6 7 12 19 15 15 14 5 6 7 7 4 9 6 5 2 4 11 21 23 20 19 24 24 22 21 20 19 18 17 17 15 12 11 11 11 10 13 14 15 16 16 16 16 16 16 16 16
8 7 11 15 20 21 19 9 8 10 10 9 9 9 1 7 3 6 17 22 23 21 21 19 22 20 21 19 18 18 18 16 13 12 11 10 11 8 15 13 16 16 16 15 15 15 16 15 15
6 6 12 15 20 19 17 10 13 13 15 14 5 15 4 8 6 11 18 22 19 21 22 20 21 21 20 20 19 19 18 15 12 12 12 12 9 14 15 13 15 16 14 14 15 16 16 14 15
11 9 14 18 18 18 12 8 11 16 14 8 6 10 7 9 7 13 18 19 18 18 18 22 19 18 20 20 20 21 18 13 13 12 13 12 13 15 16 14 14 15 14 13 13 14 15 15 15
6 9 17 15 14 15 12 12 7 7 11 7 4 4 3 16 14 14 16 17 17 19 19 18 22 19 17 16 19 19 15 13 14 15 14 14 16 15 16 14 12 14 13 13 13 14 14 15 16
5 6 11 13 13 11 9 8 12 2 11 8 4 8 6 11 11 13 15 16 18 19 21 22 23 21 21 19 16 15 14 15 16 14 18 16 13 11 11 13 11 14 13 12 13 14 15 16 20
6 8 12 10 10 11 12 12 12 12 10 15 12 8 2 7 9 12 13 14 17 18 18 21 20 21 18 19 17 15 13 16 16 16 16 14 11 10 14 13 13 13 12 13 13 18 17 15 13
3 11 9 9 10 12 14 15 14 15 16 17 15 10 10 7 10 14 15 15 19 16 14 19 20 25 23 18 15 17 17 18 19 18 17 12 12 10 10 13 12 9 11 9 12 9 8 9 9
8 7 7 10 9 10 13 14 16 16 15 15 15 16 14 11 12 14 18 20 22 20 13 20 20 22 17 15 16 17 17 17 19 21 16 14 11 13 13 12 12 9 8 10 8 8 10 11 11
9 8 10 11 12 13 14 16 16 16 15 14 15 17 18 14 14 17 18 18 17 22 26 25 24 15 17 17 17 17 13 17 23 16 14 12 11 13 12 11 11 10 9 10 9 10 11 10 10
9 12 13 11 9 11 12 14 14 12 4 9 12 16 15 15 16 17 17 19 21 17 22 25 19 18 19 18 17 15 13 18 16 15 14 12 12 13 12 12 11 10 11 11 11 10 10 10 9
10 10 11 1 5 10 8 14 16 12 6 10 11 11 12 11 17 19 21 21 23 26 26 23 24 23 19 18 18 15 16 16 17 14 13 13 13 13 13 13 12 13 12 12 11 10 10 9 9
7 7 8 9 4 3 5 12 10 4 10 10 14 13 11 10 13 19 22 23 24 26 28 28 26 26 22 21 18 20 16 20 14 13 13 14 14 13 13 13 13 13 13 12 12 10 9 9 9
6 12 12 8 2 5 7 15 13 13 14 14 15 14 15 12 10 14 17 20 23 25 28 29 28 24 23 22 18 20 18 19 16 13 13 15 14 15 14 14 14 15 14 12 11 10 9 9 8
15 15 13 11 9 11 11 13 11 10 11 12 12 13 15 14 12 9 12 18 21 24 27 30 29 26 22 19 15 18 19 23 16 14 15 17 17 16 15 14 14 15 14 12 11 10 9 8 7
13 14 14 11 7 10 11 8 5 6 5 8 12 11 13 13 6 5 11 16 16 15 24 25 26 23 27 24 20 18 20 21 16 15 16 17 18 18 15 15 16 14 13 13 12 10 8 7 7
15 12 13 7 3 8 12 4 3 10 12 15 11 11 11 11 12 13 10 13 15 17 26 44 32 33 30 27 23 19 22 16 14 13 14 16 18 18 18 19 18 16 13 12 12 11 9 8 8
14 9 15 15 13 7 16 8 8 17 13 15 18 19 15 13 11 12 6 11 12 18 23 23 28 30 30 25 25 24 24 19 14 14 13 16 18 21 18 16 14 13 11 12 11 10 9 6 7
11 17 13 8 7 7 10 3 7 16 15 18 16 16 16 13 14 10 10 11 13 16 16 17 23 25 27 26 23 27 18 15 12 20 20 19 18 24 25 23 21 15 14 11 9 10 9 4 5
10 14 8 6 9 7 12 5 5 19 16 22 20 15 14 12 13 14 10 11 12 11 10 16 8 11 21 25 22 19 14 13 13 20 20 23 25 26 25 24 21 16 11 10 9 2 2 6 11
14 14 5 6 8 1 13 5 5 12 12 17 16 16 14 15 14 14 8 7 7 7 8 10 15 6 20 25 19 14 9 8 11 14 19 22 25 27 27 28 29 22 14 11 7 8 10 13 16
15 14 3 2 4 7 13 3 7 12 11 11 12 14 14 13 14 14 4 7 7 11 15 13 16 21 15 22 18 17 11 5 8 14 19 22 20 16 17 18 27 24 20 18 15 11 14 15 17
8 7 3 2 5 6 8 8 6 9 5 8 14 14 13 14 12 13 11 14 10 13 21 25 24 22 18 19 25 23 14 10 6 8 7 10 14 12 19 25 29 24 25 20 17 15 18 15 17
9 7 3 2 5 5 2 9 5 10 14 16 16 16 16 14 13 13 14 15 14 18 22 26 24 21 22 25 22 17 15 12 5 4 6 9 8 10 13 17 17 21 18 15 14 15 10 8 7
4 3 2 1 4 5 3 9 8 14 15 15 17 16 14 13 14 13 13 18 21 22 24 26 26 26 26 21 19 17 13 14 11 6 7 8 7 10 16 20 20 18 10 11 11 11 10 10 9
2 2 3 3 2 4 7 7 8 10 10 12 13 11 13 13 13 12 13 19 21 24 23 25 28 26 26 23 19 15 13 11 11 10 9 7 6 7 16 22 18 11 8 7 9 10 9 7 4
3 4 6 4 6 4 4 4 7 7 8 9 10 10 10 11 9 9 15 19 22 21 21 21 22 24 22 21 22 20 19 19 18 16 14 13 13 10 11 12 9 8 6 5 6 5 3 6 5
Wind_Direction
278 252 246 258 246 227 258 244 244 223 219 23 286 254 302 316 356 40 146 149 147 154 159 160 164 163 161 159 156 155 150 145 137 131 127 125 124 117 111 103 94 90 86 84 83 79 74 72 69
253 235 237 260 254 249 244 223 199 241 162 311 269 256 248 240 51 92 141 161 153 155 157 163 167 164 163 163 158 156 152 148 139 135 131 130 131 129 121 111 100 97 92 86 83 80 75 72 70
249 232 252 229 239 252 266 214 245 326 299 271 281 203 334 33 79 131 118 153 154 158 158 165 166 165 165 161 161 158 153 148 141 139 135 135 142 138 132 119 115 104 96 91 86 83 79 76 72
204 207 257 259 248 251 254 284 186 254 241 234 273 278 125 48 93 118 150 156 155 156 157 163 170 167 165 162 160 158 154 150 144 143 142 142 147 143 142 122 121 111 104 95 89 85 82 78 79
230 255 244 249 248 262 273 214 316 275 266 265 261 269 161 82 96 137 154 156 158 154 166 158 171 167 166 163 162 157 152 149 147 146 145 145 145 150 131 123 126 115 106 98 93 87 84 84 86
223 254 245 252 254 254 257 254 252 268 279 277 243 255 104 104 143 148 157 162 162 159 157 166 172 171 167 164 161 155 150 151 153 152 146 144 147 140 130 128 127 117 107 101 97 93 88 82 86
248 235 256 269 274 276 284 308 278 285 274 278 352 280 98 129 146 156 162 166 165 165 167 164 174 174 170 165 163 153 153 165 157 155 150 147 142 134 126 119 124 117 109 103 101 98 95 91 86
276 261 264 265 268 277 281 260 274 295 278 15 334 268 252 129 155 161 165 170 173 172 166 165 169 171 169 168 163 162 168 168 164 157 153 149 132 131 131 122 123 114 110 105 103 102 100 98 95
263 254 258 265 273 288 282 277 276 284 289 255 267 292 37 124 143 160 174 177 180 184 170 169 169 169 169 165 170 167 175 170 163 164 163 149 137 132 140 139 128 115 109 106 107 106 109 103 101
242 255 278 346 327 299 291 292 293 277 255 253 234 222 308 125 171 169 189 183 189 188 173 164 175 171 174 186 166 181 181 173 172 165 160 150 146 148 139 132 132 116 112 111 114 106 99 100 104
250 263 328 304 301 306 293 282 277 271 266 265 276 268 146 211 194 201 201 198 191 194 166 167 184 187 174 184 172 184 179 180 184 170 173 159 156 144 137 141 144 130 123 121 120 106 124 117 105
274 240 289 296 294 294 281 292 281 275 276 285 281 274 274 214 209 219 202 202 199 188 217 177 192 207 186 181 190 184 183 174 179 181 174 161 158 162 156 154 158 150 148 139 134 129 125 119 117
252 291 305 289 283 275 277 272 275 275 271 267 259 255 257 257 227 210 224 225 221 182 192 205 187 204 187 189 194 188 165 174 173 186 161 169 168 169 162 159 159 158 151 147 140 136 126 123 116
343 301 291 281 280 289 272 281 278 272 269 277 261 252 250 249 240 233 211 227 205 217 211 195 185 199 191 194 196 177 175 173 177 161 173 174 173 173 168 164 160 159 160 151 147 141 130 124 121
295 287 276 8 330 304 326 275 250 251 243 275 275 246 234 253 256 243 223 211 219 205 207 196 194 189 194 198 193 185 181 173 169 171 174 176 173 174 169 169 164 165 163 157 152 146 140 126 123
271 254 340 15 331 20 286 300 314 354 300 287 286 291 281 233 247 247 240 216 214 218 200 192 200 185 195 196 177 186 184 178 172 177 176 175 175 172 170 171 166 165 163 160 156 153 148 145 139
202 337 341 327 304 293 278 301 301 309 315 304 294 278 263 256 239 263 243 227 214 216 202 189 197 189 188 189 184 187 182 175 178 181 178 175 175 173 169 173 167 166 164 166 165 164 163 158 157
324 327 324 318 350 341 307 319 332 358 322 302 298 277 273 258 256 239 236 227 223 210 213 202 183 181 185 187 177 190 180 187 187 182 180 177 173 174 168 170 171 168 169 169 171 172 174 172 169
309 306 303 347 20 326 356 324 33 19 347 345 337 316 304 291 267 273 254 233 222 207 238 229 170 177 176 169 175 182 184 182 184 183 184 178 172 170 170 173 172 171 177 176 178 178 181 180 178
313 316 339 304 214 303 336 222 148 46 28 358 329 324 307 291 278 252 222 240 212 199 193 206 181 183 186 170 172 175 172 169 171 179 172 176 173 167 168 171 172 173 181 183 188 177 179 187 194
325 346 326 303 313 243 333 185 225 25 21 8 348 344 317 317 287 275 256 256 221 198 205 194 183 186 180 172 162 170 168 156 147 167 172 177 179 171 166 167 172 178 184 186 191 180 192 187 213
306 359 322 289 290 347 27 321 62 17 5 358 353 336 325 323 306 276 247 252 247 214 199 210 201 193 183 160 150 159 154 153 175 170 185 177 176 180 180 175 172 162 165 166 178 188 197 229 218
312 324 323 305 285 324 12 317 335 15 351 341 338 348 339 326 319 300 263 229 246 237 202 190 178 234 171 148 165 157 141 161 192 198 199 190 189 188 183 182 181 182 180 177 166 152 260 249 261
300 309 216 277 265 255 15 16 338 10 336 325 351 350 352 340 333 311 264 230 220 214 145 134 160 162 149 143 146 164 182 179 180 198 202 201 198 191 185 190 195 188 183 175 210 222 243 267 272
354 352 5 333 3 26 2 326 43 351 352 357 349 359 356 352 346 331 184 171 175 106 107 124 127 136 150 142 171 178 175 192 233 224 213 201 195 198 194 195 189 191 195 196 218 240 268 272 267
333 334 36 299 353 330 312 5 14 334 82 47 15 16 15 5 357 360 30 54 79 98 102 119 121 120 147 136 123 114 111 153 182 189 214 213 198 196 210 201 196 195 199 203 232 248 268 258 253
353 13 358 299 209 264 231 64 165 26 23 24 30 15 18 8 12 17 29 45 66 85 104 117 123 129 130 122 127 115 129 127 145 180 177 191 194 201 195 179 178 192 197 227 244 254 238 243 260
326 331 264 130 335 324 26 60 5 6 11 18 28 21 11 12 24 28 29 38 48 70 88 93 102 111 112 109 110 108 106 98 113 123 152 184 197 204 190 182 182 190 207 225 228 231 242 249 242
247 353 343 270 351 331 322 69 11 12 19 24 40 24 18 22 27 30 42 44 54 65 73 81 88 91 97 106 105 102 101 104 111 113 107 120 143 164 185 184 185 172 180 212 246 254 262 260 251
308 337 325 329 345 303 264 71 30 37 53 37 60 38 38 44 57 49 53 57 57 65 71 81 86 88 91 96 97 92 93 95 91 90 90 94 96 109 139 154 171 193 213 231 209 202 209 225 228